Time,TemperatureF,DewpointF,PressureIn,WindDirection,WindDirectionDegrees,WindSpeedMPH,WindSpeedGustMPH,Humidity,HourlyPrecipIn,Conditions,Clouds,dailyrainin,SoftwareType,DateUTC
2013-02-23 00:03:00,31.0,23.0,30.26,East,84,0.0,5.0,71,0.00,,,0.01,,2013-02-23 05:03:00,
2013-02-23 00:12:00,31.0,23.0,30.26,East,84,0.0,5.0,71,0.00,,,0.01,,2013-02-23 05:12:00,
2013-02-23 00:23:00,31.0,23.0,30.25,East,99,2.0,6.0,71,0.00,,,0.01,,2013-02-23 05:23:00,
2013-02-23 00:33:00,31.0,23.0,30.25,ESE,102,1.0,7.0,71,0.00,,,0.01,,2013-02-23 05:33:00,
2013-02-23 00:42:00,31.0,23.0,30.25,ESE,102,1.0,7.0,71,0.00,,,0.01,,2013-02-23 05:42:00,
2013-02-23 00:52:00,31.0,23.0,30.24,SE,131,1.0,4.0,72,0.00,,,0.01,,2013-02-23 05:52:00,
2013-02-23 01:02:00,31.0,23.0,30.24,NNW,332,0.0,4.0,72,0.00,,,0.01,,2013-02-23 06:02:00,
2013-02-23 01:11:00,31.0,23.0,30.24,NNW,332,0.0,4.0,72,0.00,,,0.01,,2013-02-23 06:11:00,
2013-02-23 01:23:00,31.0,23.0,30.23,ESE,123,1.0,3.0,72,0.00,,,0.01,,2013-02-23 06:23:00,
2013-02-23 01:32:00,31.0,23.0,30.23,East,83,0.0,3.0,73,0.00,,,0.01,,2013-02-23 06:32:00,
2013-02-23 01:42:00,31.0,23.0,30.23,East,83,0.0,3.0,73,0.00,,,0.01,,2013-02-23 06:42:00,
2013-02-23 01:52:00,31.0,23.0,30.22,ENE,66,1.0,4.0,73,0.00,,,0.01,,2013-02-23 06:52:00,
2013-02-23 02:01:00,30.0,23.0,30.22,East,80,0.0,3.0,74,0.00,,,0.01,,2013-02-23 07:01:00,
2013-02-23 02:11:00,30.0,23.0,30.22,East,80,0.0,3.0,74,0.00,,,0.01,,2013-02-23 07:11:00,
2013-02-23 02:21:00,30.0,23.0,30.22,ESE,122,1.0,3.0,75,0.00,,,0.01,,2013-02-23 07:21:00,
2013-02-23 02:32:00,30.0,23.0,30.21,ESE,110,0.0,7.0,75,0.00,,,0.01,,2013-02-23 07:32:00,
2013-02-23 02:42:00,30.0,23.0,30.21,ESE,110,0.0,7.0,75,0.00,,,0.01,,2013-02-23 07:42:00,
2013-02-23 02:52:00,30.0,23.0,30.21,East,82,0.0,4.0,75,0.00,,,0.01,,2013-02-23 07:52:00,
2013-02-23 03:01:00,30.0,23.0,30.20,East,88,1.0,5.0,76,0.00,,,0.01,,2013-02-23 08:01:00,
2013-02-23 03:11:00,30.0,23.0,30.20,East,88,1.0,5.0,76,0.00,,,0.01,,2013-02-23 08:11:00,
2013-02-23 03:21:00,30.0,24.0,30.19,NW,319,0.0,2.0,77,0.00,,,0.01,,2013-02-23 08:21:00,
2013-02-23 03:32:00,30.0,24.0,30.19,East,84,0.0,3.0,77,0.00,,,0.01,,2013-02-23 08:32:00,
2013-02-23 03:42:00,30.0,24.0,30.19,East,84,0.0,3.0,77,0.00,,,0.01,,2013-02-23 08:42:00,
2013-02-23 03:53:00,30.0,24.0,30.18,East,80,1.0,6.0,78,0.00,,,0.01,,2013-02-23 08:53:00,
2013-02-23 04:02:00,30.0,24.0,30.18,East,84,1.0,4.0,79,0.00,,,0.01,,2013-02-23 09:02:00,
2013-02-23 04:11:00,30.0,24.0,30.18,East,84,1.0,4.0,79,0.00,,,0.01,,2013-02-23 09:11:00,
2013-02-23 04:22:00,30.0,24.0,30.17,NNW,339,2.0,5.0,79,0.00,,,0.01,,2013-02-23 09:22:00,
2013-02-23 04:32:00,30.0,24.0,30.17,East,92,1.0,4.0,79,0.00,,,0.01,,2013-02-23 09:32:00,
2013-02-23 04:42:00,30.0,24.0,30.17,East,92,1.0,4.0,79,0.00,,,0.01,,2013-02-23 09:42:00,
2013-02-23 04:52:00,30.0,25.0,30.17,SSW,212,0.0,4.0,80,0.00,,,0.01,,2013-02-23 09:52:00,
2013-02-23 05:01:00,30.0,25.0,30.17,East,94,1.0,5.0,80,0.00,,,0.01,,2013-02-23 10:01:00,
2013-02-23 05:11:00,30.0,25.0,30.17,East,94,1.0,5.0,80,0.00,,,0.01,,2013-02-23 10:11:00,
2013-02-23 05:21:00,30.0,25.0,30.17,North,353,0.0,5.0,81,0.00,,,0.01,,2013-02-23 10:21:00,
2013-02-23 05:32:00,30.0,25.0,30.16,ESE,114,1.0,5.0,81,0.00,,,0.01,,2013-02-23 10:32:00,
2013-02-23 05:42:00,30.0,25.0,30.16,ESE,114,1.0,5.0,81,0.00,,,0.01,,2013-02-23 10:42:00,
2013-02-23 05:52:00,30.0,25.0,30.16,SE,137,0.0,3.0,82,0.00,,,0.01,,2013-02-23 10:52:00,
2013-02-23 06:02:00,30.0,25.0,30.16,West,266,0.0,3.0,82,0.00,,,0.01,,2013-02-23 11:02:00,
2013-02-23 06:11:00,30.0,25.0,30.16,West,266,0.0,3.0,82,0.00,,,0.01,,2013-02-23 11:11:00,
2013-02-23 06:22:00,30.0,25.0,30.16,East,94,0.0,1.0,83,0.00,,,0.01,,2013-02-23 11:22:00,
2013-02-23 06:32:00,30.0,26.0,30.16,NE,37,0.0,1.0,84,0.00,,,0.01,,2013-02-23 11:32:00,
2013-02-23 06:42:00,30.0,26.0,30.16,NE,37,0.0,1.0,84,0.00,,,0.01,,2013-02-23 11:42:00,
2013-02-23 06:52:00,30.0,26.0,30.14,ESE,122,0.0,2.0,84,0.00,,,0.01,,2013-02-23 11:52:00,
2013-02-23 07:02:00,30.0,26.0,30.15,SE,136,0.0,1.0,85,0.00,,,0.01,,2013-02-23 12:02:00,
2013-02-23 07:11:00,30.0,26.0,30.15,SE,136,0.0,1.0,85,0.00,,,0.01,,2013-02-23 12:11:00,
2013-02-23 07:21:00,30.0,26.0,30.15,West,269,0.0,2.0,85,0.00,,,0.01,,2013-02-23 12:21:00,
2013-02-23 07:32:00,30.0,26.0,30.15,West,269,0.0,2.0,85,0.00,,,0.01,,2013-02-23 12:32:00,
2013-02-23 07:42:00,30.0,26.0,30.15,West,269,0.0,2.0,85,0.00,,,0.01,,2013-02-23 12:42:00,
2013-02-23 07:52:00,31.0,27.0,30.14,SE,144,0.0,1.0,85,0.00,,,0.01,,2013-02-23 12:52:00,
2013-02-23 08:01:00,31.0,27.0,30.14,ESE,107,0.0,1.0,86,0.00,,,0.01,,2013-02-23 13:01:00,
2013-02-23 08:12:00,31.0,27.0,30.14,ESE,107,0.0,1.0,86,0.00,,,0.01,,2013-02-23 13:12:00,
2013-02-23 08:22:00,31.0,27.0,30.14,ESE,102,0.0,1.0,86,0.00,,,0.01,,2013-02-23 13:22:00,
2013-02-23 08:32:00,31.0,27.0,30.13,ESE,108,1.0,5.0,86,0.00,,,0.01,,2013-02-23 13:32:00,
2013-02-23 08:42:00,31.0,27.0,30.13,ESE,108,1.0,5.0,86,0.00,,,0.01,,2013-02-23 13:42:00,
2013-02-23 08:52:00,31.0,27.0,30.13,ESE,108,1.0,5.0,86,0.00,,,0.01,,2013-02-23 13:52:00,
2013-02-23 09:02:00,31.0,27.0,30.13,SE,134,0.0,3.0,86,0.00,,,0.01,,2013-02-23 14:02:00,
2013-02-23 09:11:00,31.0,27.0,30.13,SE,134,0.0,3.0,86,0.00,,,0.01,,2013-02-23 14:11:00,
2013-02-23 09:21:00,31.0,27.0,30.12,ESE,114,0.0,3.0,86,0.00,,,0.01,,2013-02-23 14:21:00,
2013-02-23 09:32:00,32.0,28.0,30.12,NNE,19,0.0,2.0,86,0.00,,,0.01,,2013-02-23 14:32:00,
2013-02-23 09:42:00,32.0,28.0,30.12,NNE,19,0.0,2.0,86,0.00,,,0.01,,2013-02-23 14:42:00,
2013-02-23 09:52:00,32.0,28.0,30.12,NNE,19,0.0,2.0,86,0.00,,,0.01,,2013-02-23 14:52:00,
2013-02-23 10:02:00,32.0,28.0,30.10,East,79,0.0,3.0,86,0.00,,,0.01,,2013-02-23 15:02:00,
2013-02-23 10:11:00,32.0,28.0,30.10,East,79,0.0,3.0,86,0.00,,,0.01,,2013-02-23 15:11:00,
2013-02-23 10:22:00,32.0,28.0,30.10,East,79,0.0,3.0,86,0.00,,,0.01,,2013-02-23 15:22:00,
2013-02-23 10:32:00,32.0,28.0,30.10,East,79,0.0,3.0,86,0.00,,,0.01,,2013-02-23 15:32:00,
2013-02-23 10:42:00,32.0,28.0,30.10,East,79,0.0,3.0,86,0.00,,,0.01,,2013-02-23 15:42:00,
2013-02-23 10:51:00,32.0,28.0,30.08,ENE,68,0.0,3.0,86,0.00,,,0.01,,2013-02-23 15:51:00,
2013-02-23 11:01:00,33.0,29.0,30.07,SE,131,0.0,2.0,85,0.00,,,0.01,,2013-02-23 16:01:00,
2013-02-23 11:11:00,33.0,29.0,30.07,SE,131,0.0,2.0,85,0.00,,,0.01,,2013-02-23 16:11:00,
2013-02-23 11:21:00,33.0,29.0,30.07,SE,131,0.0,2.0,85,0.00,,,0.01,,2013-02-23 16:21:00,
2013-02-23 11:32:00,33.0,29.0,30.07,SE,131,0.0,2.0,85,0.00,,,0.01,,2013-02-23 16:32:00,
2013-02-23 11:52:00,33.0,29.0,30.06,ENE,62,0.0,1.0,85,0.00,,,0.01,,2013-02-23 16:52:00,
2013-02-23 12:01:00,33.0,29.0,30.06,ENE,62,0.0,1.0,85,0.00,,,0.01,,2013-02-23 17:01:00,
2013-02-23 12:11:00,34.0,30.0,30.05,NW,311,1.0,4.0,85,0.00,,,0.01,,2013-02-23 17:11:00,
2013-02-23 12:22:00,34.0,30.0,30.05,NW,311,1.0,4.0,85,0.00,,,0.01,,2013-02-23 17:22:00,
2013-02-23 12:32:00,34.0,30.0,30.05,ESE,105,0.0,2.0,86,0.00,,,0.01,,2013-02-23 17:32:00,
2013-02-23 12:42:00,34.0,30.0,30.05,ESE,105,0.0,2.0,86,0.00,,,0.01,,2013-02-23 17:42:00,
2013-02-23 12:52:00,34.0,30.0,30.04,ESE,106,0.0,0.0,86,0.00,,,0.01,,2013-02-23 17:52:00,
2013-02-23 13:02:00,34.0,30.0,30.04,SE,129,0.0,3.0,86,0.00,,,0.01,,2013-02-23 18:02:00,
2013-02-23 13:12:00,34.0,30.0,30.04,SE,129,0.0,3.0,86,0.00,,,0.01,,2013-02-23 18:12:00,
2013-02-23 13:22:00,34.0,31.0,30.04,SE,142,0.0,2.0,87,0.00,,,0.01,,2013-02-23 18:22:00,
2013-02-23 13:32:00,34.0,31.0,30.03,West,274,0.0,1.0,89,0.00,,,0.01,,2013-02-23 18:32:00,
2013-02-23 13:42:00,34.0,31.0,30.03,West,274,0.0,1.0,89,0.00,,,0.01,,2013-02-23 18:42:00,
2013-02-23 13:52:00,34.0,31.0,30.03,West,274,0.0,1.0,89,0.00,,,0.01,,2013-02-23 18:52:00,
2013-02-23 14:01:00,33.0,31.0,30.02,West,275,0.0,1.0,91,0.00,,,0.01,,2013-02-23 19:01:00,
2013-02-23 14:11:00,33.0,31.0,30.02,West,276,0.0,1.0,92,0.00,,,0.01,,2013-02-23 19:11:00,
2013-02-23 14:21:00,33.0,31.0,30.02,West,276,0.0,1.0,92,0.00,,,0.01,,2013-02-23 19:21:00,
2013-02-23 14:32:00,33.0,31.0,30.01,West,281,0.0,0.0,93,0.00,,,0.01,,2013-02-23 19:32:00,
2013-02-23 14:42:00,33.0,31.0,30.01,West,281,0.0,0.0,93,0.00,,,0.01,,2013-02-23 19:42:00,
2013-02-23 14:52:00,33.0,31.0,30.00,West,281,0.0,0.0,93,0.00,,,0.01,,2013-02-23 19:52:00,
2013-02-23 15:01:00,33.0,31.0,30.00,West,280,0.0,2.0,93,0.00,,,0.01,,2013-02-23 20:01:00,
2013-02-23 15:11:00,33.0,31.0,30.00,West,280,0.0,2.0,93,0.00,,,0.01,,2013-02-23 20:11:00,
2013-02-23 15:21:00,33.0,31.0,30.00,West,280,0.0,0.0,93,0.00,,,0.01,,2013-02-23 20:21:00,
2013-02-23 15:32:00,33.0,31.0,29.99,West,280,0.0,0.0,93,0.00,,,0.00,,2013-02-23 20:32:00,
2013-02-23 15:42:00,33.0,31.0,29.99,West,280,0.0,0.0,93,0.00,,,0.00,,2013-02-23 20:42:00,
2013-02-23 15:52:00,33.0,31.0,29.98,NW,311,0.0,1.0,94,0.00,,,0.00,,2013-02-23 20:52:00,
2013-02-23 16:02:00,33.0,31.0,29.98,NW,325,0.0,1.0,94,0.00,,,0.00,,2013-02-23 21:02:00,
2013-02-23 16:11:00,33.0,31.0,29.98,NW,325,0.0,0.0,94,0.00,,,0.00,,2013-02-23 21:11:00,
2013-02-23 16:22:00,33.0,31.0,29.98,NW,325,0.0,0.0,94,0.00,,,0.00,,2013-02-23 21:22:00,
2013-02-23 16:32:00,33.0,31.0,29.98,NNW,345,0.0,2.0,94,0.00,,,0.00,,2013-02-23 21:32:00,
2013-02-23 16:42:00,33.0,31.0,29.98,NNW,345,0.0,2.0,94,0.00,,,0.00,,2013-02-23 21:42:00,
2013-02-23 16:51:00,33.0,31.0,29.98,NNW,344,0.0,1.0,94,0.00,,,0.00,,2013-02-23 21:51:00,
2013-02-23 17:02:00,33.0,31.0,29.98,NNW,341,0.0,1.0,94,0.00,,,0.00,,2013-02-23 22:02:00,
2013-02-23 17:11:00,32.0,30.0,29.97,NNW,341,0.0,0.0,94,0.00,,,0.00,,2013-02-23 22:11:00,
2013-02-23 17:21:00,32.0,30.0,29.96,NNW,347,0.0,2.0,94,0.00,,,0.00,,2013-02-23 22:21:00,
2013-02-23 17:22:00,32.0,30.0,29.97,NNW,341,0.0,0.0,94,0.00,,,0.00,,2013-02-23 22:22:00,
2013-02-23 17:32:00,32.0,30.0,29.96,NNW,341,0.0,1.0,94,0.00,,,0.00,,2013-02-23 22:32:00,
2013-02-23 17:42:00,32.0,30.0,29.96,NNW,341,0.0,1.0,94,0.00,,,0.00,,2013-02-23 22:42:00,
2013-02-23 17:52:00,32.0,30.0,29.96,NNW,347,0.0,2.0,94,0.00,,,0.00,,2013-02-23 22:52:00,
2013-02-23 18:01:00,32.0,30.0,29.96,NNW,347,0.0,2.0,94,0.00,,,0.00,,2013-02-23 23:01:00,
2013-02-23 18:11:00,32.0,30.0,29.96,NNW,347,0.0,2.0,94,0.00,,,0.00,,2013-02-23 23:11:00,
2013-02-23 18:32:00,32.0,31.0,29.96,NNW,347,0.0,0.0,95,0.00,,,0.00,,2013-02-23 23:32:00,
2013-02-23 18:42:00,32.0,31.0,29.96,NNW,347,0.0,0.0,95,0.00,,,0.00,,2013-02-23 23:42:00,
2013-02-23 18:52:00,32.0,31.0,29.96,NNW,347,0.0,0.0,95,0.00,,,0.00,,2013-02-23 23:52:00,
2013-02-23 19:02:00,32.0,31.0,29.95,NNW,347,0.0,0.0,95,0.00,,,0.00,,2013-02-24 00:02:00,
2013-02-23 19:11:00,32.0,31.0,29.95,NNW,347,0.0,0.0,95,0.00,,,0.00,,2013-02-24 00:11:00,
2013-02-23 19:22:00,32.0,31.0,29.95,NNW,347,0.0,0.0,95,0.00,,,0.00,,2013-02-24 00:22:00,
2013-02-23 19:32:00,32.0,31.0,29.95,NNW,347,0.0,0.0,95,0.00,,,0.00,,2013-02-24 00:32:00,
2013-02-23 19:42:00,32.0,31.0,29.95,NNW,347,0.0,0.0,95,0.00,,,0.00,,2013-02-24 00:42:00,
2013-02-23 19:52:00,32.0,31.0,29.95,NNW,347,0.0,0.0,95,0.00,,,0.00,,2013-02-24 00:52:00,
2013-02-23 20:01:00,32.0,31.0,29.95,NNW,347,0.0,0.0,95,0.00,,,0.00,,2013-02-24 01:01:00,
2013-02-23 20:11:00,32.0,31.0,29.95,NNW,347,0.0,0.0,95,0.00,,,0.00,,2013-02-24 01:11:00,
2013-02-23 20:22:00,32.0,31.0,29.95,NNW,347,0.0,0.0,95,0.00,,,0.00,,2013-02-24 01:22:00,
2013-02-23 20:32:00,32.0,31.0,29.95,NNW,347,0.0,0.0,95,0.00,,,0.00,,2013-02-24 01:32:00,
2013-02-23 20:42:00,32.0,31.0,29.95,NNW,347,0.0,0.0,95,0.00,,,0.00,,2013-02-24 01:42:00,
2013-02-23 20:52:00,32.0,31.0,29.94,NNW,347,0.0,0.0,95,0.00,,,0.00,,2013-02-24 01:52:00,
2013-02-23 21:01:00,32.0,31.0,29.94,NNW,347,0.0,0.0,95,0.00,,,0.00,,2013-02-24 02:01:00,
2013-02-23 21:11:00,32.0,31.0,29.94,NNW,347,0.0,0.0,95,0.00,,,0.00,,2013-02-24 02:11:00,
2013-02-23 21:22:00,32.0,31.0,29.94,NNW,347,0.0,0.0,95,0.00,,,0.00,,2013-02-24 02:22:00,
2013-02-23 21:32:00,32.0,31.0,29.94,NNW,347,0.0,0.0,95,0.00,,,0.00,,2013-02-24 02:32:00,
2013-02-23 21:42:00,32.0,31.0,29.94,NNW,347,0.0,0.0,95,0.00,,,0.00,,2013-02-24 02:42:00,
2013-02-23 21:52:00,32.0,31.0,29.94,NNW,347,0.0,0.0,95,0.00,,,0.00,,2013-02-24 02:52:00,
2013-02-23 22:02:00,32.0,31.0,29.93,NNW,346,0.0,0.0,95,0.00,,,0.00,,2013-02-24 03:02:00,
2013-02-23 22:12:00,32.0,31.0,29.93,NNW,346,0.0,0.0,95,0.00,,,0.00,,2013-02-24 03:12:00,
2013-02-23 22:22:00,32.0,31.0,29.93,NNW,346,0.0,0.0,95,0.00,,,0.00,,2013-02-24 03:22:00,
2013-02-23 22:32:00,32.0,31.0,29.92,NNW,346,0.0,0.0,95,0.00,,,0.00,,2013-02-24 03:32:00,
2013-02-23 22:42:00,32.0,31.0,29.92,NNW,346,0.0,0.0,95,0.00,,,0.00,,2013-02-24 03:42:00,
2013-02-23 22:52:00,32.0,31.0,29.92,NNW,346,0.0,0.0,95,0.00,,,0.00,,2013-02-24 03:52:00,
2013-02-23 23:02:00,32.0,31.0,29.92,NNW,346,0.0,0.0,96,0.00,,,0.00,,2013-02-24 04:02:00,
2013-02-23 23:11:00,32.0,31.0,29.92,NNW,346,0.0,0.0,96,0.00,,,0.00,,2013-02-24 04:11:00,
2013-02-23 23:21:00,32.0,31.0,29.92,NNW,346,0.0,-999.0,96,-99.99,,,-99.99,,2013-02-24 04:21:00,
2013-02-23 23:32:00,32.0,31.0,29.91,NNW,346,0.0,0.0,96,0.00,,,0.00,,2013-02-24 04:32:00,
2013-02-23 23:42:00,32.0,31.0,29.91,NNW,346,0.0,0.0,96,0.00,,,0.00,,2013-02-24 04:42:00,
2013-02-23 23:52:00,32.0,31.0,29.91,WNW,290,0.0,1.0,96,0.00,,,0.00,,2013-02-24 04:52:00,